#timestamp,LO_Frequency,Hit,Temp,Hum 
1479560415.8,286046975.6,N,0.0,0.0
1479560435.6,286046975.3,N,0.0,0.0
1479560455.5,286046974.8,N,0.0,0.0
1479560475.3,286046973.0,N,0.0,0.0
1479560495.2,286046973.4,N,0.0,0.0
1479560515.9,286046974.0,N,0.0,0.0
1479560535.7,286046971.3,N,0.0,0.0
1479560555.6,286046971.9,N,0.0,0.0
1479560575.4,286046971.2,N,0.0,0.0
1479560595.2,286046971.4,N,0.0,0.0
1479560615.1,286046971.6,N,0.0,0.0
1479560616.0,286046971.6,N,0.0,0.0
1479560635.8,286046969.4,N,0.0,0.0
1479560655.7,286046972.1,N,0.0,0.0
1479560675.5,286046969.8,N,0.0,0.0
1479560695.3,286046972.4,N,0.0,0.0
1479560715.2,286046970.0,N,0.0,0.0
1479560735.0,286046970.5,N,0.0,0.0
1479560735.9,286046970.5,N,0.0,0.0
1479560755.8,286046970.5,N,0.0,0.0
1479560775.6,286046970.1,N,0.0,0.0
1479560795.4,286046967.9,N,0.0,0.0
1479560815.3,286046969.2,N,0.0,0.0
1479560835.1,286046966.1,N,0.0,0.0
1479560836.0,286046966.1,N,0.0,0.0
1479560855.8,286046969.2,N,0.0,0.0
1479560875.7,286046966.9,N,0.0,0.0
1479560895.5,286046967.3,N,0.0,0.0
1479560915.4,286046967.5,N,0.0,0.0
1479560935.2,286046966.9,N,0.0,0.0
1479560955.0,286046966.7,N,0.0,0.0
1479560955.9,286046966.7,N,0.0,0.0
1479560975.8,286046967.4,N,0.0,0.0
1479560995.6,286046967.5,N,0.0,0.0
1479561015.4,286046967.4,N,0.0,0.0
1479561035.3,286046967.6,N,0.0,0.0
1479561055.1,286046967.2,N,0.0,0.0
1479561075.9,286046964.5,N,0.0,0.0
1479561095.7,286046967.4,N,0.0,0.0
1479561115.5,286046967.6,N,0.0,0.0
1479561135.4,286046964.6,N,0.0,0.0
1479561155.2,286046967.1,N,0.0,0.0
1479561175.0,286046966.6,N,0.0,0.0
1479561175.9,286046966.6,N,0.0,0.0
1479561195.8,286046967.3,N,0.0,0.0
1479561215.6,286046967.4,N,0.0,0.0
1479561235.5,286046966.6,N,0.0,0.0
1479561255.3,286046967.9,N,0.0,0.0
1479561275.1,286046967.9,N,0.0,0.0
1479561295.9,286046968.5,N,0.0,0.0
1479561315.7,286046968.7,N,0.0,0.0
1479561335.5,286046968.3,N,0.0,0.0
1479561355.4,286046968.9,N,0.0,0.0
1479561375.2,286046968.6,N,0.0,0.0
1479561395.1,286046968.5,N,0.0,0.0
1479561396.0,286046968.5,N,0.0,0.0
1479561415.8,286046970.3,N,0.0,0.0
1479561435.6,286046968.3,N,0.0,0.0
1479561455.5,286046967.9,N,0.0,0.0
1479561475.3,286046967.8,N,0.0,0.0
1479561495.2,286046969.4,N,0.0,0.0
1479561515.9,286046971.2,N,0.0,0.0
1479561535.7,286046971.8,N,0.0,0.0
1479561555.6,286046972.1,N,0.0,0.0
1479561575.4,286046971.5,N,0.0,0.0
1479561595.2,286046972.3,N,0.0,0.0
1479561615.1,286046972.3,N,0.0,0.0
1479561616.0,286046972.3,N,0.0,0.0
1479561635.8,286046969.3,N,0.0,0.0
1479561655.7,286046972.3,N,0.0,0.0
1479561675.5,286046969.6,N,0.0,0.0
1479561695.3,286046969.6,N,0.0,0.0
1479561715.2,286046969.7,N,0.0,0.0
1479561735.0,286046969.7,N,0.0,0.0
1479561735.9,286046969.7,N,0.0,0.0
1479561755.8,286046969.5,N,0.0,0.0
1479561775.6,286046969.9,N,0.0,0.0
1479561795.4,286046969.7,N,0.0,0.0
1479561815.3,286046971.2,N,0.0,0.0
1479561835.1,286046971.5,N,0.0,0.0
1479561855.8,286046971.0,N,0.0,0.0
1479561875.7,286046971.0,N,0.0,0.0
1479561895.5,286046974.0,N,0.0,0.0
1479561915.4,286046971.1,N,0.0,0.0
1479561935.2,286046971.6,N,0.0,0.0
1479561955.0,286046971.6,N,0.0,0.0
1479561955.9,286046971.6,N,0.0,0.0
1479561975.8,286046973.7,N,0.0,0.0
1479561995.6,286046973.9,N,0.0,0.0
1479562015.5,286046974.0,N,0.0,0.0
1479562035.3,286046973.6,N,0.0,0.0
1479562055.1,286046972.5,N,0.0,0.0
1479562075.9,286046973.3,N,0.0,0.0
1479562095.7,286046973.2,N,0.0,0.0
1479562115.5,286046972.8,N,0.0,0.0
1479562135.4,286046975.3,N,0.0,0.0
1479562155.2,286046975.5,N,0.0,0.0
1479562175.1,286046975.0,N,0.0,0.0
1479562176.0,286046975.0,N,0.0,0.0
1479562195.8,286046974.5,N,0.0,0.0
1479562215.6,286046976.2,N,0.0,0.0
1479562235.5,286046976.1,N,0.0,0.0
1479562255.3,286046978.8,N,0.0,0.0
1479562275.1,286046978.7,N,0.0,0.0
1479562295.9,286046978.2,N,0.0,0.0
1479562315.7,286046976.1,N,0.0,0.0
1479562335.6,286046978.7,N,0.0,0.0
1479562355.4,286046978.3,N,0.0,0.0
1479562375.2,286046977.9,N,0.0,0.0
1479562395.1,286046978.3,N,0.0,0.0
1479562396.0,286046978.3,N,0.0,0.0
1479562415.8,286046978.0,N,0.0,0.0
1479562435.7,286046977.5,N,0.0,0.0
1479562455.5,286046980.3,N,0.0,0.0
1479562475.3,286046980.3,N,0.0,0.0
1479562495.2,286046977.3,N,0.0,0.0
1479562515.9,286046979.9,N,0.0,0.0
1479562535.7,286046979.4,N,0.0,0.0
1479562555.6,286046979.2,N,0.0,0.0
1479562575.4,286046979.4,N,0.0,0.0
1479562595.3,286046979.3,N,0.0,0.0
1479562615.1,286046981.4,N,0.0,0.0
1479562616.0,286046981.4,N,0.0,0.0
1479562635.8,286046979.0,N,0.0,0.0
1479562655.7,286046979.3,N,0.0,0.0
1479562675.5,286046981.6,N,0.0,0.0
1479562695.3,286046980.8,N,0.0,0.0
1479562715.2,286046980.8,N,0.0,0.0
1479562735.0,286046980.6,N,0.0,0.0
1479562735.9,286046980.6,N,0.0,0.0
1479562755.8,286046982.9,N,0.0,0.0
1479562775.6,286046982.1,N,0.0,0.0
1479562795.4,286046982.7,N,0.0,0.0
1479562815.3,286046982.4,N,0.0,0.0
1479562835.1,286046982.4,N,0.0,0.0
1479562855.9,286046982.1,N,0.0,0.0
1479562875.7,286046983.4,N,0.0,0.0
1479562895.5,286046982.9,N,0.0,0.0
1479562915.4,286046982.7,N,0.0,0.0
1479562935.2,286046984.7,N,0.0,0.0
1479562955.0,286046982.1,N,0.0,0.0
1479562955.9,286046982.1,N,0.0,0.0
1479562975.8,286046985.1,N,0.0,0.0
1479562995.6,286046984.3,N,0.0,0.0
1479563015.5,286046983.7,N,0.0,0.0
1479563035.3,286046984.1,N,0.0,0.0
1479563055.1,286046984.4,N,0.0,0.0
1479563075.9,286046984.2,N,0.0,0.0
1479563095.7,286046986.5,N,0.0,0.0
1479563115.6,286046986.6,N,0.0,0.0
1479563135.4,286046986.1,N,0.0,0.0
1479563155.2,286046985.6,N,0.0,0.0
1479563175.1,286046987.9,N,0.0,0.0
1479563176.0,286046987.9,N,0.0,0.0
1479563195.8,286046985.3,N,0.0,0.0
1479563215.6,286046985.3,N,0.0,0.0
1479563235.5,286046985.9,N,0.0,0.0
1479563255.3,286046987.7,N,0.0,0.0
1479563275.2,286046988.2,N,0.0,0.0
1479563295.9,286046988.3,N,0.0,0.0
1479563315.7,286046985.6,N,0.0,0.0
1479563335.6,286046985.4,N,0.0,0.0
1479563355.4,286046988.4,N,0.0,0.0
1479563375.2,286046987.9,N,0.0,0.0
1479563395.1,286046988.4,N,0.0,0.0
1479563396.0,286046988.4,N,0.0,0.0
1479563415.8,286046988.2,N,0.0,0.0
1479563435.7,286046988.4,N,0.0,0.0
1479563455.5,286046989.6,N,0.0,0.0
1479563475.3,286046990.0,N,0.0,0.0
1479563495.2,286046989.3,N,0.0,0.0
1479563515.0,286046988.8,N,0.0,0.0
1479563515.9,286046988.8,N,0.0,0.0
1479563535.8,286046989.2,N,0.0,0.0
1479563555.6,286046989.2,N,0.0,0.0
1479563575.4,286046988.6,N,0.0,0.0
1479563595.3,286046989.5,N,0.0,0.0
1479563615.1,286046989.4,N,0.0,0.0
1479563635.8,286046991.4,N,0.0,0.0
1479563655.7,286046991.4,N,0.0,0.0
1479563675.5,286046991.1,N,0.0,0.0
1479563695.3,286046990.8,N,0.0,0.0
1479563715.2,286046990.6,N,0.0,0.0
1479563735.0,286046993.1,N,0.0,0.0
1479563735.9,286046993.1,N,0.0,0.0
1479563755.8,286046992.8,N,0.0,0.0
1479563775.6,286046990.4,N,0.0,0.0
1479563795.4,286046990.7,N,0.0,0.0
1479563815.3,286046993.1,N,0.0,0.0
1479563835.1,286046990.6,N,0.0,0.0
1479563855.9,286046992.8,N,0.0,0.0
1479563875.7,286046992.8,N,0.0,0.0
1479563895.5,286046992.9,N,0.0,0.0
1479563915.4,286046990.4,N,0.0,0.0
1479563935.2,286046990.9,N,0.0,0.0
1479563955.0,286046990.2,N,0.0,0.0
1479563955.9,286046990.2,N,0.0,0.0
1479563975.8,286046990.2,N,0.0,0.0
1479563995.6,286046990.7,N,0.0,0.0
